| time (UTC) | temp C | wind direction | speed KPH | gust KPH | rain 1hr cm | rain 24hr cm | rain mn cm | humidity % | barometer mb |
| 20260507104545 | 11 | 56 | 0.0 | 0.0 | 0.00 | 0.00 | 0.00 | 93 | 1015.5 |
| 20260507103045 | 11 | 56 | 0.0 | 0.0 | 0.00 | 0.00 | 0.00 | 92 | 1015.5 |
| 20260507101540 | 11 | 56 | 0.0 | 0.0 | 0.00 | 0.00 | 0.00 | 92 | 1015.7 |
| 20260507100041 | 11 | 57 | 0.0 | 0.0 | 0.00 | 0.00 | 0.00 | 92 | 1015.6 |
| 20260507094539 | 11 | 57 | 0.0 | 0.0 | 0.00 | 0.00 | 0.00 | 91 | 1015.7 |
| 20260507093033 | 11 | 56 | 0.0 | 0.0 | 0.00 | 0.00 | 0.00 | 91 | 1016.1 |
| 20260507091533 | 12 | 54 | 0.0 | 0.0 | 0.00 | 0.00 | 0.00 | 91 | 1015.9 |
| 20260507090033 | 11 | 68 | 0.0 | 0.0 | 0.00 | 0.00 | 0.00 | 90 | 1016.2 |
| 20260507084527 | 12 | 68 | 0.0 | 0.0 | 0.00 | 0.00 | 0.00 | 90 | 1016.4 |
| 20260507083025 | 12 | 68 | 0.0 | 0.0 | 0.00 | 0.00 | 0.00 | 90 | 1016.6 |
| 20260507081535 | 12 | 153 | 0.0 | 0.0 | 0.00 | 0.00 | 0.00 | 89 | 1016.6 |
| 20260507080021 | 12 | 153 | 0.0 | 0.0 | 0.00 | 0.00 | 0.00 | 89 | 1016.7 |
| 20260507074539 | 12 | 134 | 0.0 | 0.0 | 0.00 | 0.00 | 0.00 | 88 | 1016.7 |
| 20260507073018 | 13 | 139 | 0.0 | 0.0 | 0.00 | 0.00 | 0.00 | 88 | 1016.7 |
| 20260507071517 | 13 | 124 | 0.0 | 0.0 | 0.00 | 0.00 | 0.00 | 88 | 1016.8 |
| 20260507070020 | 13 | 139 | 0.0 | 1.6 | 0.00 | 0.00 | 0.00 | 88 | 1016.7 |
| 20260507064514 | 13 | 140 | 0.0 | 0.0 | 0.00 | 0.00 | 0.00 | 86 | 1016.9 |
| 20260507063021 | 13 | 140 | 0.0 | 0.0 | 0.00 | 0.00 | 0.00 | 86 | 1017.0 |
| 20260507061512 | 13 | 140 | 0.0 | 0.0 | 0.00 | 0.00 | 0.00 | 85 | 1016.9 |
| 20260507060011 | 14 | 145 | 0.0 | 0.0 | 0.00 | 0.00 | 0.00 | 84 | 1016.9 |
| 20260507054512 | 14 | 145 | 0.0 | 1.6 | 0.00 | 0.00 | 0.00 | 83 | 1016.9 |
| 20260507053007 | 14 | 130 | 0.0 | 0.0 | 0.00 | 0.00 | 0.00 | 83 | 1016.9 |
| 20260507051506 | 15 | 141 | 0.0 | 0.0 | 0.00 | 0.00 | 0.00 | 82 | 1016.9 |
| 20260507050017 | 15 | 141 | 0.0 | 0.0 | 0.00 | 0.00 | 0.00 | 81 | 1016.9 |
| 20260507044506 | 15 | 141 | 0.0 | 0.0 | 0.00 | 0.00 | 0.00 | 81 | 1016.8 |
| 20260507043003 | 15 | 143 | 0.0 | 0.0 | 0.00 | 0.00 | 0.00 | 80 | 1016.7 |
| 20260507041502 | 16 | 139 | 0.0 | 1.6 | 0.00 | 0.00 | 0.00 | 78 | 1016.6 |
| 20260507040005 | 16 | 119 | 0.0 | 1.6 | 0.00 | 0.00 | 0.00 | 77 | 1016.5 |
| 20260507034500 | 16 | 129 | 0.0 | 1.6 | 0.00 | 0.00 | 0.00 | 76 | 1016.4 |
| 20260507033106 | 16 | 138 | 0.0 | 1.6 | 0.00 | 0.00 | 0.00 | 74 | 1016.2 |
| 20260507031608 | 17 | 131 | 0.0 | 0.0 | 0.00 | 0.00 | 0.00 | 72 | 1016.0 |
| 20260507030100 | 17 | 124 | 0.0 | 0.0 | 0.00 | 0.00 | 0.00 | 71 | 1015.9 |
| 20260507024558 | 18 | 130 | 0.0 | 1.6 | 0.00 | 0.00 | 0.00 | 68 | 1015.7 |
| 20260507023105 | 18 | 94 | 0.0 | 0.0 | 0.00 | 0.00 | 0.00 | 65 | 1015.5 |
| 20260507021557 | 19 | 56 | 0.0 | 0.0 | 0.00 | 0.00 | 0.00 | 62 | 1015.5 |
| 20260507020057 | 20 | 76 | 0.0 | 0.0 | 0.00 | 0.00 | 0.00 | 60 | 1015.3 |
| 20260507014604 | 20 | 71 | 0.0 | 0.0 | 0.00 | 0.00 | 0.00 | 59 | 1015.2 |
| 20260507013055 | 21 | 35 | 0.0 | 8.0 | 0.00 | 0.00 | 0.00 | 59 | 1015.2 |
| 20260507011555 | 21 | 76 | 0.0 | 0.0 | 0.00 | 0.00 | 0.00 | 57 | 1015.1 |
| 20260507010057 | 21 | 297 | 0.0 | 1.6 | 0.00 | 0.00 | 0.00 | 56 | 1015.1 |
| 20260507004554 | 22 | 23 | 0.0 | 0.0 | 0.00 | 0.00 | 0.00 | 55 | 1015.0 |
| 20260507003053 | 22 | 56 | 0.0 | 4.8 | 0.00 | 0.00 | 0.00 | 54 | 1015.1 |
| 20260507001601 | 23 | 248 | 0.0 | 3.2 | 0.00 | 0.00 | 0.00 | 53 | 1014.9 |
| 20260507000052 | 23 | 289 | 0.0 | 0.0 | 0.00 | 0.00 | 0.00 | 51 | 1014.8 |
| 20260506234551 | 24 | 174 | 0.0 | 9.7 | 0.00 | 0.00 | 0.00 | 51 | 1014.7 |
| 20260506233107 | 24 | 278 | 0.0 | 6.4 | 0.00 | 0.00 | 0.00 | 50 | 1014.7 |
| 20260506231550 | 25 | 1 | 0.0 | 1.6 | 0.00 | 0.00 | 0.00 | 49 | 1014.7 |
| 20260506230048 | 25 | 284 | 0.0 | 3.2 | 0.00 | 0.00 | 0.00 | 47 | 1014.7 |
| 20260506224547 | 25 | 247 | 0.0 | 3.2 | 0.00 | 0.00 | 0.00 | 49 | 1014.8 |
| 20260506223046 | 25 | 306 | 0.0 | 3.2 | 0.00 | 0.00 | 0.00 | 49 | 1015.0 |
| 20260506221543 | 25 | 322 | 0.0 | 8.0 | 0.00 | 0.00 | 0.00 | 50 | 1015.0 |
| 20260506220041 | 25 | 251 | 0.0 | 1.6 | 0.00 | 0.00 | 0.00 | 48 | 1015.1 |
| 20260506214540 | 25 | 245 | 0.0 | 4.8 | 0.00 | 0.00 | 0.00 | 49 | 1015.3 |
| 20260506213038 | 26 | 205 | 0.0 | 4.8 | 0.00 | 0.00 | 0.00 | 48 | 1015.3 |
| 20260506211537 | 26 | 253 | 0.0 | 3.2 | 0.00 | 0.00 | 0.00 | 49 | 1015.3 |
| 20260506210035 | 26 | 241 | 0.0 | 4.8 | 0.00 | 0.00 | 0.00 | 49 | 1015.4 |
| 20260506204535 | 25 | 250 | 0.0 | 9.7 | 0.00 | 0.00 | 0.00 | 50 | 1015.5 |
| 20260506203034 | 25 | 40 | 1.6 | 8.0 | 0.00 | 0.00 | 0.00 | 48 | 1015.4 |
| 20260506201532 | 25 | 136 | 0.0 | 6.4 | 0.00 | 0.00 | 0.00 | 47 | 1015.6 |
| 20260506200028 | 26 | 235 | 0.0 | 8.0 | 0.00 | 0.00 | 0.00 | 47 | 1015.8 |
| 20260506194525 | 25 | 61 | 0.0 | 1.6 | 0.00 | 0.00 | 0.00 | 45 | 1016.0 |
| 20260506193024 | 25 | 25 | 1.6 | 9.7 | 0.00 | 0.00 | 0.00 | 45 | 1016.1 |
| 20260506191519 | 24 | 90 | 0.0 | 3.2 | 0.00 | 0.00 | 0.00 | 46 | 1016.3 |
| 20260506190015 | 23 | 346 | 0.0 | 3.2 | 0.00 | 0.00 | 0.00 | 47 | 1016.5 |
| 20260506184514 | 23 | 63 | 0.0 | 1.6 | 0.00 | 0.00 | 0.00 | 49 | 1016.7 |
| 20260506183011 | 22 | 46 | 0.0 | 4.8 | 0.00 | 0.00 | 0.00 | 49 | 1016.9 |
| 20260506181508 | 22 | 50 | 0.0 | 4.8 | 0.00 | 0.00 | 0.00 | 52 | 1017.1 |
| 20260506180007 | 21 | 1 | 0.0 | 4.8 | 0.00 | 0.08 | 0.00 | 54 | 1017.3 |
| 20260506174505 | 21 | 234 | 0.0 | 4.8 | 0.00 | 0.08 | 0.00 | 55 | 1017.5 |
| 20260506173002 | 21 | 38 | 0.0 | 3.2 | 0.00 | 0.08 | 0.00 | 54 | 1017.7 |
| 20260506171603 | 20 | 295 | 0.0 | 6.4 | 0.00 | 0.08 | 0.00 | 56 | 1017.8 |
| 20260506170105 | 20 | 257 | 0.0 | 3.2 | 0.00 | 0.08 | 0.00 | 57 | 1017.8 |
| 20260506164602 | 20 | 27 | 0.0 | 4.8 | 0.00 | 0.08 | 0.00 | 58 | 1017.7 |
| 20260506163110 | 18 | 41 | 0.0 | 3.2 | 0.00 | 0.08 | 0.00 | 61 | 1017.8 |
| 20260506161549 | 18 | 101 | 0.0 | 0.0 | 0.00 | 0.08 | 0.00 | 63 | 1017.7 |
| 20260506160047 | 17 | 239 | 0.0 | 0.0 | 0.00 | 0.08 | 0.00 | 65 | 1017.8 |
| 20260506154606 | 17 | 228 | 0.0 | 0.0 | 0.00 | 0.08 | 0.00 | 67 | 1017.9 |
| 20260506153050 | 16 | 62 | 0.0 | 0.0 | 0.00 | 0.08 | 0.00 | 70 | 1018.0 |
| 20260506151536 | 15 | 63 | 0.0 | 0.0 | 0.00 | 0.08 | 0.00 | 77 | 1018.1 |
| 20260506150034 | 13 | 65 | 0.0 | 0.0 | 0.00 | 0.08 | 0.00 | 79 | 1018.0 |
| 20260506144529 | 12 | 65 | 0.0 | 0.0 | 0.00 | 0.25 | 0.00 | 83 | 1018.1 |
| 20260506143033 | 12 | 65 | 0.0 | 0.0 | 0.00 | 0.25 | 0.00 | 87 | 1017.9 |
| 20260506141522 | 11 | 67 | 0.0 | 0.0 | 0.00 | 0.25 | 0.00 | 88 | 1018.0 |
| 20260506140022 | 11 | 67 | 0.0 | 0.0 | 0.00 | 0.28 | 0.00 | 89 | 1017.8 |
| 20260506134520 | 10 | 67 | 0.0 | 0.0 | 0.00 | 0.28 | 0.00 | 93 | 1017.8 |
| 20260506133017 | 9 | 67 | 0.0 | 0.0 | 0.00 | 0.28 | 0.00 | 93 | 1017.7 |
| 20260506131516 | 8 | 67 | 0.0 | 0.0 | 0.00 | 0.28 | 0.00 | 93 | 1017.5 |
| 20260506130018 | 8 | 67 | 0.0 | 0.0 | 0.00 | 0.48 | 0.00 | 93 | 1017.4 |
| 20260506124515 | 8 | 67 | 0.0 | 0.0 | 0.00 | 0.48 | 0.00 | 93 | 1017.3 |
| 20260506123014 | 8 | 67 | 0.0 | 0.0 | 0.00 | 0.48 | 0.00 | 92 | 1017.2 |
| 20260506121513 | 9 | 67 | 0.0 | 0.0 | 0.00 | 0.48 | 0.00 | 92 | 1017.1 |
| 20260506120012 | 9 | 67 | 0.0 | 0.0 | 0.00 | 0.48 | 0.00 | 91 | 1017.0 |
| 20260506114512 | 10 | 67 | 0.0 | 0.0 | 0.00 | 0.48 | 0.00 | 92 | 1017.0 |
| 20260506113011 | 10 | 67 | 0.0 | 0.0 | 0.00 | 0.48 | 0.00 | 92 | 1017.1 |
| 20260506111513 | 9 | 67 | 0.0 | 0.0 | 0.00 | 0.48 | 0.00 | 92 | 1016.9 |